"Pseudo-MPEC" for gb00843

Created 2026 May 8 1:35:09 UT using Find_Orb

Click here for an explanation of pseudo-MPECs

 
 Astrometry: 
     gb00843*KC2026 05 06.91105 14 39 36.14 +06 43 51.0    ~56MZ 19.6 GXNEOCPL51
     gb00843 KC2026 05 06.91240 14 39 37.25 +06 43 41.2    ~56MZ 19.0 GXNEOCPL51
     gb00843 KC2026 05 06.91371 14 39 38.32 +06 43 32.1    ~56MZ 19.6 GXNEOCPL51
     gb00843 KC2026 05 06.93679 14 39 57.32 +06 40 45.4    ~56N5 19.4 GXNEOCPL51
     gb00843 KC2026 05 06.93908 14 39 59.18 +06 40 28.6    ~56N5 19.6 GXNEOCPL51
     gb00843 KC2026 05 06.94123 14 40 00.96 +06 40 13.5    ~56N5 18.9 GXNEOCPL51
     gb00843 KB2026 05 06.95059 14 40 10.89 +06 39 00.2    ~56NZ 19.1 GXNEOCPM45
     gb00843 KB2026 05 06.95626 14 40 15.61 +06 38 18.5    ~56NZ 19.2 GXNEOCPM45
     gb00843 KB2026 05 06.96187 14 40 20.34 +06 37 37.7    ~56NZ 19.2 GXNEOCPM45
     gb00843 KB2026 05 06.99823 14 40 51.57 +06 33 04.6    ~5715 19.5 GXNEOCPL04
     gb00843 0C2026 05 07.01514814 41 12.209+06 30 42.26   ~570o 19.5 GWNEOCPJ95
     gb00843 0C2026 05 07.01752214 41 14.232+06 30 24.88   ~570o 19.3 GWNEOCPJ95
     gb00843 0C2026 05 07.01991114 41 16.270+06 30 06.88   ~570o 19.2 GWNEOCPJ95
     gb00843 KB2026 05 07.02155 14 41 11.56 +06 30 09.3    ~5715 19.3 GXNEOCPL04
     gb00843 0C2026 05 07.02228314 41 18.326+06 29 49.24   ~570o 19.7 GWNEOCPJ95
     gb00843 KB2026 05 07.13930614 43 09.611+06 21 09.28   ~574K 19.7 VZNEOCPY05
     gb00843 1C2026 05 07.14161714 43 30.846+06 15 52.85   ~573o 19.21GVNEOCPI52
     gb00843 1C2026 05 07.14178714 43 30.936+06 15 51.59   ~573o 19.42GVNEOCPI52
     gb00843 1C2026 05 07.14196214 43 31.116+06 15 50.65   ~573o 19.37GVNEOCPI52
     gb00843 1C2026 05 07.14213114 43 31.314+06 15 49.10   ~573o 19.65GVNEOCPI52
     gb00843 KB2026 05 07.14931114 43 18.209+06 19 51.16   ~574K 19.7 VZNEOCPY05
     gb00843 KB2026 05 07.15945014 43 26.933+06 18 31.64   ~574K 19.5 VZNEOCPY05
     gb00843 KC2026 05 07.19517214 44 12.64 +06 08 29.7    ~575K 19.6 GVNEOCPH21
     gb00843 KC2026 05 07.19796814 44 15.15 +06 08 07.8    ~575K 19.5 GVNEOCPH21
     gb00843 KC2026 05 07.20076414 44 17.67 +06 07 45.6    ~575K 19.5 GVNEOCPH21
     gb00843  C2026 05 07.29874414 45 52.512+05 55 00.12   ~577o 19.1 GWNEOCPH01
     gb00843  C2026 05 07.30316114 45 56.571+05 54 23.58   ~577o 19.4 GWNEOCPH01
     gb00843 KB2026 05 07.30785914 46 01.430+05 53 55.18   ~57BZ 19.61GWNEOCPV21
     gb00843  C2026 05 07.31308114 46 05.707+05 53 01.43   ~577o 19.2 GWNEOCPH01
     gb00843 KB2026 05 07.31556714 46 08.486+05 52 51.24   ~57BZ 19.16GWNEOCPV21
     gb00843  C2026 05 07.31955414 46 11.704+05 52 07.42   ~577o 19.3 GWNEOCPH01
     gb00843 KB2026 05 07.32584514 46 17.993+05 51 25.74   ~57BZ 18.96GWNEOCPV21
     gb00843 KB2026 05 07.34127314 46 32.326+05 49 15.78   ~57BZ 18.95GWNEOCPV21
     gb00843 KB2026 05 07.35665514 46 46.762+05 47 06.22   ~57BZ 19.38GWNEOCPV21
     gb00843 KB2026 05 07.55582014 50 38.266+05 17 46.99   ~57E5 18.1 GXNEOCPQ06
     gb00843 KB2026 05 07.56331414 50 45.981+05 16 40.22   ~57E5 19.2 GXNEOCPQ06
     gb00843 KB2026 05 07.57080914 50 53.558+05 15 31.33   ~57E5 19.4 GXNEOCPQ06
     gb00843 KB2026 05 07.64641514 52 11.798+05 03 54.72   ~57GK 19.6 VZNEOCP900
     gb00843 KB2026 05 07.65702314 52 22.874+05 02 14.21   ~57GK 18.4 VZNEOCP900

Station data:
(900) Moriyama  (N35.049753 E135.989940)  Japan.  Observer Y. Ikari. 0.26-m
   f/7.0 reflector + CCD.
(H01) Magdalena Ridge Observatory, Socorro  (N33.984833 W107.189333)  US/New
   Mexico.  Observers W. H. Ryan, E. V. Ryan. Measurer W. H. Ryan. 2.4-m
   f/8.9 reflector + CCD.
(H21) Astronomical Research Observatory, Westfield  (N39.483054 W87.968270)
   US/Illinois.  Observer R. Holmes. Measurers S. Foglia, L. Buzzi, T.
   Linder, R. Holmes. 0.40-m f/5.32 astrograph + CCD.
(I52) Steward Observatory, Mt. Lemmon Station  (N32.442570 W110.788920)
   US/Arizona. Measurers T. Beuden, V. F. Carvajal, D. Fay, J. B. Fazekas, D.
   C. Fuls, A. R. Gibbs, A. D. Grauer, H. Gröller, J. K. Hogan, R. A.
   Kowalski, S. M. Larson, G. J. Leonard, D. Rankin, R. L. Seaman, F. C.
   Shelly, K. W. Wierzchoś. 1.0-m prime focus + CCD.
(J95) Great Shefford  (N51.474969 W1.447003)  UK/England.  Observer P.
   Birtwhistle. 0.41-m f/6.3 Schmidt-Cassegrain + CCD.
(L04) ROASTERR-1 Observatory, Cluj-Napoca  (N46.820952 E23.596400)  Romania.
   Observer L. Hudin. 0.1-m f/9 refractor + CCD.
(L51) MARGO, Nauchnij  (N44.729397 E34.016400)  Ukraine.  Observer G. Borisov.
    0.4-m f/2.3 astrograph + CCD.
(M45) Starhopper Observatory, Sfantu Gheorghe  (N45.865494 E25.768890)
   Romania.  Observer F. Ursache. 0.41-m f/7.5 reflector + CMO.
(Q06) Tarui Observatory, Tarui  (N35.394791 E136.495470)  Japan.  Observer H.
   Watanabe. 0.35-m f/1.9 Schmidt-Cassegrain + CMO.
(V21) Cewanee Observatory at DSNM  (N31.946619 W108.897690)  US/New Mexico.
   Observer D. T. Durig. 0.4-m f/8 Ritchey-Chrétien + 4656x3520 CCD.
(Y05) SONEAR Wykrota-CEAMIG, Serra da Piedade  (S19.824251 W43.690000)
   Brazil.  Observer C. Jacques. 0.45-m f/2.9 reflector + CMO.

Orbital elements:  gb00843
   Perihelion 2026 Jun 3.747121 +/- 0.00972 TT = 17:55:51.2 (JD 2461195.247121)
Epoch 2026 May  7.0 TT = JDT 2461167.5   Earth MOID: 0.0038   Ma: 0.0846
M 348.996218434 +/- 0.011           (J2000 ecliptic)             AutoNEOCP
n   0.396573813 +/- 0.000392        Peri.  207.134089 +/- 0.016
a   1.834791390 +/- 0.00121         Node    51.515177 +/- 0.0025
e   0.46484125 +/- 0.000372         Incl.    5.607825 +/- 0.0038
P   2.485/907.758d         H 26.26  G  0.15   U  7.5
q 0.981904653 +/- 5.82e-5    Q 2.687678127 +/- 0.00245
From 39 observations 2026 May 6-7 (17.9 hr); mean residual 0".34
Residuals in arcseconds: 
260506 L51  .26-  .01-    260507 L04  .72-  .32-    260507 H01  .01-  .09-    
260506 L51  .15-  .10-    260507 J95  .02-  .07+    260507 V21  .31+  .29-    
260506 L51  .15-  .22+    260507 Y05  .46-  .47+    260507 H01  .05-  .02-    
260506 L51  .48+  .57+    260507 I52  .29+  .11-    260507 V21  .18-  .27-    
260506 L51  .01-  .44+    260507 I52  .70-  .07-    260507 H01  .13+  .16-    
260506 L51  .01+  1.0+    260507 I52  .41-  .32+    260507 V21  .05+  .11-    
260506 M45  .34+  .00     260507 I52  .23+  .06+    260507 V21  .07-  .66-    
260506 M45  .41+  .23-    260507 Y05  .14+  .18+    260507 V21  .08+  .22-    
260506 M45  1.2+  .12+    260507 Y05  .17+  .05-    260507 Q06  .47-  .36-    
260506 L04  .18+  .06-    260507 H21  .13-  .21-    260507 Q06  .61+  .55+    
260507 J95  .17+  .25-    260507 H21  .07-  .02-    260507 Q06  .50-  .40-    
260507 J95  .04-  .10+    260507 H21  .13+  .10-    260507 900  .61+  .57+    
260507 J95  .26-  .04-    260507 H01  .04-  .04-    260507 900  .17-  .25+    

Ephemerides (geocentric):
Date (UTC) HH   RA             Dec           delta  r     elong  mag " sig PA
---- --------  ------------   ------------  ------ ------ -----  --- --------
2026 05 08 02  15 01 27.375   +03 52 38.64  .02282 1.0305 159.2 19.1 .120 129
2026 05 08 03  15 02 24.822   +03 44 52.36  .02264 1.0304 159.3 19.1 .128 127
2026 05 08 04  15 03 23.181   +03 36 58.18  .02245 1.0302 159.4 19.1 .136 124
2026 05 08 05  15 04 22.474   +03 28 55.94  .02227 1.0301 159.5 19.1 .146 122
2026 05 08 06  15 05 22.719   +03 20 45.47  .02209 1.0299 159.6 19.0 .156 120
2026 05 08 07  15 06 23.938   +03 12 26.59  .02191 1.0298 159.7 19.0 .167 118
2026 05 08 08  15 07 26.152   +03 03 59.12  .02173 1.0296 159.8 19.0 .179 117
2026 05 08 09  15 08 29.382   +02 55 22.90  .02155 1.0295 159.9 19.0 .191 116
2026 05 08 10  15 09 33.652   +02 46 37.72  .02137 1.0293 160.0 19.0 .205 115
2026 05 08 11  15 10 38.983   +02 37 43.41  .02120 1.0292 160.1 18.9 .219 114
2026 05 08 12  15 11 45.399   +02 28 39.77  .02102 1.0291 160.3 18.9 .235 113
2026 05 08 13  15 12 52.924   +02 19 26.60  .02084 1.0289 160.4 18.9 .251 112
2026 05 08 14  15 14 01.583   +02 10 03.72  .02067 1.0288 160.5 18.9 .268 111
2026 05 08 15  15 15 11.401   +02 00 30.91  .02049 1.0286 160.6 18.8 .286 111
2026 05 08 16  15 16 22.403   +01 50 47.97  .02032 1.0285 160.7 18.8 .305 110
2026 05 08 17  15 17 34.616   +01 40 54.69  .02014 1.0283 160.8 18.8 .325 110
2026 05 08 18  15 18 48.068   +01 30 50.86  .01997 1.0282 160.9 18.8 .346 109
2026 05 08 19  15 20 02.786   +01 20 36.26  .01980 1.0281 161.0 18.8 .369 109
2026 05 08 20  15 21 18.797   +01 10 10.68  .01963 1.0279 161.0 18.7 .392 109
2026 05 08 21  15 22 36.133   +00 59 33.88  .01946 1.0278 161.1 18.7 .416 108
2026 05 08 22  15 23 54.821   +00 48 45.65  .01929 1.0276 161.2 18.7 .442 108
2026 05 08 23  15 25 14.893   +00 37 45.77  .01912 1.0275 161.3 18.7 .469 108
2026 05 09 00  15 26 36.379   +00 26 33.98  .01895 1.0273 161.4 18.7 .497 108
2026 05 09 01  15 27 59.312   +00 15 10.08  .01878 1.0272 161.4 18.6 .526 108
2026 05 09 02  15 29 23.724   +00 03 33.81  .01862 1.0271 161.5 18.6 .557 108
2026 05 09 03  15 30 49.649   -00 08 15.05  .01845 1.0269 161.6 18.6 .589 108
2026 05 09 04  15 32 17.120   -00 20 16.75  .01829 1.0268 161.6 18.6 .623 108
2026 05 09 05  15 33 46.172   -00 32 31.51  .01812 1.0266 161.7 18.5 .658 108
2026 05 09 06  15 35 16.841   -00 44 59.60  .01796 1.0265 161.7 18.5 .695 108
2026 05 09 07  15 36 49.164   -00 57 41.23  .01780 1.0264 161.7 18.5 .733 108
2026 05 09 08  15 38 23.176   -01 10 36.66  .01764 1.0262 161.8 18.5 .773 108
2026 05 09 09  15 39 58.916   -01 23 46.12  .01748 1.0261 161.8 18.5 .815 108
2026 05 09 10  15 41 36.423   -01 37 09.86  .01732 1.0259 161.8 18.4 .859 108
2026 05 09 11  15 43 15.735   -01 50 48.10  .01717 1.0258 161.8 18.4 .904 108
2026 05 09 12  15 44 56.892   -02 04 41.08  .01701 1.0257 161.8 18.4 .951 108
2026 05 09 13  15 46 39.935   -02 18 49.04  .01686 1.0255 161.7 18.4 1.00 108
2026 05 09 14  15 48 24.906   -02 33 12.19  .01670 1.0254 161.7 18.4 1.05 108
2026 05 09 15  15 50 11.846   -02 47 50.77  .01655 1.0252 161.6 18.3 1.11 108
2026 05 09 16  15 52 00.797   -03 02 44.98  .01640 1.0251 161.6 18.3 1.16 108
2026 05 09 17  15 53 51.804   -03 17 55.04  .01625 1.0250 161.5 18.3 1.22 108
2026 05 09 18  15 55 44.909   -03 33 21.14  .01610 1.0248 161.4 18.3 1.28 108
2026 05 09 19  15 57 40.158   -03 49 03.48  .01596 1.0247 161.3 18.3 1.34 108
2026 05 09 20  15 59 37.594   -04 05 02.25  .01581 1.0246 161.2 18.3 1.41 109
2026 05 09 21  16 01 37.264   -04 21 17.60  .01567 1.0244 161.1 18.2 1.47 109
2026 05 09 22  16 03 39.213   -04 37 49.70  .01553 1.0243 160.9 18.2 1.54 109
2026 05 09 23  16 05 43.486   -04 54 38.68  .01539 1.0241 160.7 18.2 1.62 109
2026 05 10 00  16 07 50.131   -05 11 44.68  .01525 1.0240 160.6 18.2 1.69 109
2026 05 10 01  16 09 59.193   -05 29 07.80  .01511 1.0239 160.4 18.2 1.77 109